Location: Paddlesworth
(51.1000°N, 1.1333°E)
Time: 04:12:59
(UTC+00:00)

BREEZE-M R/B - Pass Details

Date: 11 May 2021
Orbit: 311 x 4502 km, 49.7° (Epoch: 14 June)

Event Time Altitude Azimuth Distance (km) Brightness Sun altitude
Rises 21:00:36 0° 252° (WSW) 2,186 6.2 -11.3°
Reaches altitude 10° 21:02:38 10° 247° (WSW) 1,230 4.8 -11.5°
Maximum altitude 21:05:02 52° 168° (SSE) 401 1.8 -11.8°
Enters shadow 21:07:11 13° 92° (E) 1,125 4.0 -12.0°
